Theta_e
321 321 322 321 320 320 320 320 320 320 320 319 318 313 314 312 306 304 300 307 311 316 316 305 305 307 308 305 306 306 296 294 294 294 296 299 298 301 302 302 304 304 305 305 314
321 321 321 320 319 319 319 319 319 319 319 319 317 312 312 311 303 300 305 313 314 316 304 302 302 305 303 302 304 300 296 295 297 297 297 298 298 299 299 300 301 301 304 309 313
320 321 321 319 319 319 318 319 319 319 317 317 315 312 311 309 299 297 309 312 314 312 305 303 303 303 299 302 300 300 295 296 296 298 297 297 297 299 298 298 302 301 303 307 310
320 320 320 319 318 318 317 318 318 318 316 315 311 312 311 307 294 300 308 310 310 307 303 301 301 298 297 296 299 294 295 295 296 295 295 295 297 297 298 300 300 301 304 306 308
320 320 320 319 318 317 317 318 318 318 314 313 312 313 305 298 296 303 310 308 305 303 300 298 298 297 294 296 296 295 294 295 295 295 295 295 295 295 296 300 301 299 300 303 306
320 319 319 318 317 316 316 317 318 317 313 311 313 310 301 294 301 304 303 304 304 302 300 300 298 298 296 294 294 295 294 294 294 294 294 293 294 293 296 298 297 297 298 301 303
319 319 319 318 316 315 316 317 317 316 312 310 309 300 298 294 301 304 304 303 304 303 300 302 301 298 297 294 295 295 292 293 294 294 294 294 292 292 298 296 296 296 297 299 301
319 318 318 317 315 315 315 315 315 312 311 311 306 299 293 299 303 302 304 302 305 304 302 302 303 299 297 298 294 292 292 289 293 294 294 294 292 295 296 296 296 297 297 297 299
318 317 317 316 315 315 315 313 310 313 310 308 302 299 292 302 298 301 303 300 302 303 303 302 301 297 297 294 292 292 292 290 290 293 292 293 293 295 297 298 298 299 299 300 299
318 317 316 315 314 315 314 311 310 307 302 300 298 296 296 293 298 299 302 302 300 300 300 299 298 295 295 294 289 291 289 289 290 291 292 292 293 297 298 297 296 296 297 296 296
318 317 314 313 314 314 308 308 303 301 296 291 290 293 294 298 300 299 300 299 299 298 294 295 296 291 289 290 289 290 289 288 290 290 288 291 290 292 293 294 294 295 295 295 295
318 314 313 312 313 309 306 301 297 299 291 293 292 293 294 296 294 298 302 295 296 294 295 296 289 290 290 290 290 290 288 288 290 289 287 288 288 290 291 291 293 293 294 294 295
314 312 311 311 312 307 303 299 303 303 295 292 292 294 294 297 293 294 298 295 292 290 293 293 289 290 289 289 288 287 286 285 285 287 287 286 288 289 291 292 293 293 294 295 294
311 310 309 309 307 304 302 304 304 303 289 289 291 293 296 296 292 297 297 294 292 288 291 289 290 288 288 286 287 285 286 285 283 286 284 286 283 287 290 290 290 291 291 292 294
310 309 307 308 305 301 302 304 303 302 282 290 291 298 296 293 293 294 297 296 290 288 290 285 286 287 286 284 286 284 286 284 283 284 282 282 283 286 289 287 289 289 290 292 294
309 309 309 306 306 302 305 304 302 288 283 287 291 290 291 292 292 294 294 296 294 289 289 286 288 287 286 286 285 286 283 283 284 285 281 276 279 284 286 285 287 288 290 291 292
307 307 304 305 300 304 306 303 287 283 286 287 287 289 288 287 289 290 288 288 288 285 286 285 284 286 287 285 286 284 284 283 281 281 280 274 278 285 285 286 287 287 289 291 292
306 304 304 304 307 306 303 291 284 285 286 288 288 287 286 286 286 288 287 286 287 287 285 285 282 284 285 284 282 282 282 281 275 277 280 273 278 283 286 287 289 289 289 290 291
306 304 305 303 304 303 297 284 285 287 288 287 287 285 285 285 285 286 286 286 287 286 286 282 281 284 283 284 283 282 282 281 277 269 276 282 283 285 286 285 286 286 287 287 289
305 302 300 301 301 301 287 285 286 288 289 288 286 284 286 285 283 284 283 287 285 286 286 283 281 280 282 284 282 282 281 280 281 274 274 279 278 283 280 281 283 284 284 285 287
306 297 300 301 300 293 285 285 285 288 289 286 285 284 284 285 283 284 283 286 287 285 286 284 284 279 281 280 282 279 280 279 280 279 277 276 281 283 283 282 281 281 283 284 285
301 288 300 300 287 285 285 285 287 289 291 288 287 285 286 284 283 283 282 285 288 287 284 285 283 280 281 281 282 281 282 282 278 277 277 275 278 284 283 282 282 281 282 284 285
297 296 300 298 284 285 284 284 286 287 287 287 286 286 286 284 282 283 283 288 287 286 285 285 282 278 278 278 280 278 281 281 279 279 277 276 279 280 280 280 280 281 282 284 284
296 286 290 292 291 289 284 284 284 287 287 287 286 287 284 281 282 281 283 286 287 287 287 286 281 279 278 278 281 277 279 280 279 277 278 278 282 277 278 280 280 280 282 283 283
295 287 286 285 288 286 286 284 283 282 287 288 285 285 284 280 281 279 284 285 286 287 286 285 279 279 279 280 276 277 277 278 275 278 277 278 279 284 283 281 279 280 282 283 283
294 291 290 287 287 286 284 283 283 283 285 283 282 284 285 281 282 279 282 283 283 285 285 284 278 275 274 277 276 275 277 278 277 278 278 278 277 284 280 278 279 281 282 281 282
294 293 292 285 286 286 286 284 283 285 286 286 286 284 283 285 286 286 287 286 285 283 283 281 279 274 274 272 271 272 275 276 278 279 278 274 280 280 278 278 279 281 281 281 282
Wind_Speed
11 13 13 13 13 13 13 14 12 11 11 8 5 4 4 4 3 4 5 8 8 12 9 4 4 3 3 3 1 2 5 7 4 5 3 3 3 2 3 4 2 2 4 3 16
10 12 13 13 14 14 14 14 13 12 10 8 5 4 3 3 2 6 4 10 10 8 4 4 6 6 4 3 3 6 6 3 6 5 3 2 4 3 4 7 6 5 6 9 14
11 11 13 13 14 15 15 14 13 12 9 5 3 4 4 5 4 3 10 12 9 7 3 3 2 4 4 4 3 3 4 3 3 5 4 3 4 1 5 7 5 3 11 10 12
10 11 12 13 14 15 15 15 14 11 8 4 3 4 4 5 2 4 11 10 6 3 3 3 5 4 4 6 3 5 0 3 2 3 3 3 6 5 7 3 5 4 2 10 12
9 10 12 13 14 15 15 15 14 9 7 4 4 4 4 4 4 7 9 5 2 2 1 3 6 4 5 2 3 5 2 1 1 1 3 5 7 8 8 6 4 1 2 7 9
7 8 10 13 15 15 16 16 13 8 6 4 5 3 4 4 4 9 8 3 5 2 1 2 2 1 3 1 4 2 2 2 1 2 1 6 5 3 4 2 1 5 7 5 7
7 8 9 12 15 16 16 16 12 6 5 4 3 3 1 4 4 8 5 4 4 3 1 3 2 3 3 4 2 4 4 3 2 3 2 5 7 7 3 0 4 1 1 4 5
6 7 8 11 13 15 15 14 9 5 3 3 2 3 3 2 5 7 7 2 4 4 5 3 3 5 2 5 4 4 3 4 5 6 2 5 2 5 3 1 1 1 1 2 4
5 7 8 11 13 14 15 13 6 2 2 1 2 3 3 0 2 6 6 4 3 3 3 1 1 2 3 4 3 2 2 4 4 4 4 2 6 6 2 4 9 8 7 5 6
6 6 8 10 14 14 14 6 3 2 3 2 1 2 2 3 4 4 3 4 2 1 3 0 0 2 2 3 2 4 4 3 2 6 5 8 11 9 9 9 10 8 6 7 7
4 4 5 11 14 13 8 3 3 3 7 5 3 2 2 4 3 4 4 3 1 0 1 3 2 3 3 3 3 3 1 2 4 4 6 4 11 12 8 6 6 6 6 8 9
4 1 5 9 13 9 5 2 2 4 6 3 2 2 2 3 2 9 7 2 4 3 1 2 3 2 1 1 1 2 1 0 1 2 5 7 13 5 7 7 8 8 9 10 10
7 4 7 11 10 2 4 4 3 5 1 3 3 3 3 5 4 8 8 1 5 4 2 0 6 1 1 3 1 4 2 2 3 9 1 11 3 7 10 12 11 11 9 11 12
8 5 4 10 2 1 2 3 3 4 3 2 2 4 2 3 2 3 5 3 3 3 5 6 3 1 1 3 5 2 4 3 4 5 2 7 1 8 7 10 12 11 12 11 12
8 5 1 5 2 1 3 3 2 3 2 2 2 3 3 3 3 5 2 1 4 3 2 3 3 3 3 4 4 4 2 3 2 0 2 3 3 8 7 5 9 12 12 12 11
7 5 4 1 3 2 3 2 4 5 2 1 3 3 1 4 3 4 1 5 2 4 9 4 2 4 4 3 4 4 1 2 1 1 3 3 4 5 1 5 6 10 12 12 12
10 9 5 1 2 4 3 3 5 2 1 2 2 2 3 4 3 6 3 2 1 3 2 3 2 2 3 2 3 2 1 1 3 3 1 1 4 2 5 7 9 9 10 12 12
6 7 6 6 2 3 3 5 2 1 2 1 0 2 1 4 3 4 1 2 1 3 3 4 3 2 6 3 1 0 2 3 4 2 3 1 6 3 10 8 8 9 9 9 11
1 0 3 7 6 3 2 3 4 2 2 4 3 1 1 2 1 2 2 2 2 3 3 4 2 3 5 1 2 3 2 3 3 1 3 3 3 7 9 5 6 8 9 10 10
1 1 4 8 6 2 6 2 1 1 1 1 3 3 2 3 3 2 2 2 2 1 2 2 2 1 1 2 4 2 3 2 2 3 5 4 5 6 12 10 2 5 6 8 8
2 2 4 6 4 5 2 2 1 0 2 2 2 1 3 4 3 3 2 3 2 3 0 3 1 3 2 6 4 4 3 2 2 3 4 4 4 4 13 13 9 3 4 4 6
2 2 5 4 4 2 2 2 3 1 0 1 2 0 3 2 4 3 4 2 2 4 3 2 0 4 3 4 1 2 3 5 5 4 2 4 7 6 13 11 7 4 2 5 5
2 2 3 3 3 2 2 2 2 3 2 3 2 2 1 2 4 3 2 2 2 3 2 3 2 2 3 3 3 5 7 4 1 2 8 5 3 3 7 7 4 2 3 5 5
1 2 4 4 0 5 4 2 2 1 1 0 1 0 1 1 0 4 3 1 2 2 1 2 3 5 4 3 2 4 7 9 7 5 6 15 6 6 9 6 5 5 6 6 6
4 2 2 2 3 2 1 4 3 2 2 2 1 7 3 2 2 4 3 1 2 2 1 2 5 4 7 5 4 7 6 10 15 15 10 14 10 2 8 6 4 5 6 5 4
1 2 2 2 1 2 1 1 2 0 3 2 3 2 7 4 2 2 3 5 4 5 4 1 2 2 5 5 7 14 15 16 19 18 19 23 29 6 5 3 3 4 5 6 7
2 2 3 0 1 1 0 1 3 5 5 2 3 3 6 7 3 1 1 2 2 4 8 4 4 2 6 3 8 12 15 21 12 10 16 16 13 5 4 2 3 5 7 7 8
Wind_Direction
4 358 358 1 358 351 344 341 340 336 326 319 312 323 325 327 243 227 48 347 317 317 306 273 218 184 223 164 293 292 249 246 243 242 62 88 238 103 13 268 202 84 26 57 133
355 353 353 356 351 347 342 339 336 333 324 312 303 317 312 297 251 64 28 332 324 324 274 212 167 172 166 177 188 235 252 267 28 14 15 14 307 1 273 200 209 177 105 132 149
345 346 347 348 349 343 339 337 335 333 328 312 295 311 307 269 239 53 5 341 329 294 281 275 172 209 195 198 177 174 273 47 70 25 348 323 263 277 277 252 249 260 156 161 169
339 341 341 343 345 341 337 333 332 331 326 314 307 315 297 246 281 25 350 339 331 324 262 205 194 196 211 203 173 222 28 355 41 23 317 286 320 259 248 313 50 37 66 171 188
333 337 337 338 340 339 336 333 331 324 320 310 317 313 272 210 48 357 337 345 306 283 260 231 203 202 211 190 191 245 135 87 68 338 311 307 265 285 270 253 185 191 182 190 202
326 333 332 333 338 338 335 336 333 320 323 312 314 309 264 235 345 347 345 344 19 296 135 233 300 290 109 118 256 77 168 128 54 8 321 307 280 296 114 44 204 239 241 234 223
317 330 332 331 334 337 334 336 329 327 315 314 314 275 16 60 350 356 12 14 1 355 110 40 23 264 148 140 148 152 176 180 54 348 334 327 246 236 295 262 286 323 244 234 237
313 331 335 332 334 327 330 334 323 327 321 347 314 274 70 11 341 10 353 50 46 46 70 50 35 99 344 120 167 217 235 217 87 0 110 304 75 97 94 14 59 33 145 224 240
290 318 331 334 330 330 330 321 326 327 355 289 254 286 86 178 344 349 6 2 354 58 67 46 29 67 167 213 189 179 253 230 142 40 319 276 321 107 155 285 303 293 266 275 298
274 318 331 337 330 327 325 291 358 300 283 215 142 182 67 10 334 338 359 339 27 130 159 149 156 148 157 229 237 184 210 196 301 30 329 277 276 315 322 316 309 310 346 343 324
256 304 339 337 333 335 331 261 252 174 46 43 358 355 34 340 279 21 3 293 212 90 178 41 116 132 53 21 344 345 342 317 83 27 316 317 304 324 1 43 44 40 53 26 16
220 19 347 340 334 331 294 311 47 8 98 54 42 80 29 337 286 35 342 259 70 94 154 110 109 72 6 354 38 37 41 353 122 33 317 331 309 53 33 38 42 34 34 31 24
119 58 357 339 333 336 29 56 337 309 317 71 34 15 356 325 41 360 347 56 87 50 39 353 71 359 279 37 252 42 7 28 341 323 173 313 175 117 89 75 62 48 37 37 33
121 89 16 319 295 0 58 13 341 341 89 17 54 47 322 330 77 356 10 342 76 143 67 65 42 73 115 79 339 214 24 22 6 345 329 358 203 142 128 90 64 44 32 30 29
119 101 113 30 53 350 31 331 302 245 300 39 41 338 349 6 355 54 352 338 69 91 127 78 37 48 44 27 341 57 33 47 55 46 299 20 242 125 180 99 40 36 37 38 35
132 174 227 151 99 32 308 265 238 42 256 1 322 342 12 31 44 326 51 61 62 84 61 84 73 24 38 59 42 113 341 47 183 156 223 98 326 141 56 348 54 62 57 47 42
95 85 59 46 77 344 293 229 44 129 325 346 16 9 98 18 38 10 10 80 282 113 144 171 74 95 353 219 132 20 283 231 205 213 321 194 257 26 80 85 92 76 53 47 43
79 54 58 50 13 319 247 58 91 175 223 154 285 108 51 1 56 352 282 218 127 268 145 185 216 19 2 35 11 309 323 309 281 244 58 232 233 147 124 110 105 73 57 48 42
256 90 57 10 353 308 66 70 209 164 74 175 159 106 329 127 341 332 304 289 2 337 233 166 194 119 42 7 304 111 268 37 97 125 258 178 235 176 159 123 110 64 43 24 23
279 75 47 339 335 271 74 214 148 349 322 260 220 207 228 187 212 162 203 118 176 333 347 126 173 73 118 253 67 265 52 182 190 257 251 187 260 232 174 170 146 58 26 0 357
274 41 38 347 285 50 125 139 344 242 336 332 317 206 225 189 212 192 185 155 189 145 3 150 258 107 232 201 163 142 190 219 313 263 272 279 228 326 178 155 140 106 9 322 319
30 39 19 320 40 23 64 22 315 118 190 279 301 343 252 188 210 247 240 219 160 176 199 132 290 214 191 120 5 265 258 217 240 175 253 317 273 4 114 119 125 125 307 313 302
104 76 72 292 90 58 40 12 355 341 336 326 297 310 39 230 270 234 246 52 185 214 236 175 223 238 194 173 185 229 200 196 93 292 222 257 240 82 120 134 158 154 272 281 289
319 32 351 38 109 140 159 160 186 249 251 78 333 134 249 323 299 317 258 178 192 265 304 222 234 253 271 70 66 206 209 216 209 232 239 231 260 178 184 178 183 212 241 262 257
7 57 48 15 23 64 233 155 146 207 251 206 223 227 192 257 251 244 233 210 212 185 186 273 262 283 273 261 228 254 228 200 210 224 233 274 231 124 185 193 207 244 246 242 256
47 139 132 99 96 137 38 210 218 206 183 229 235 306 196 211 238 303 214 211 221 182 206 187 276 349 273 311 294 271 250 237 236 237 250 258 270 268 126 168 213 290 312 304 305
123 127 296 148 124 262 239 199 214 175 197 227 241 208 229 244 241 183 283 303 301 198 196 184 185 192 268 3 317 270 228 222 222 211 226 243 265 146 166 212 265 273 275 263 271